When you browse on this site, cookies collect data to enhance your experience and personalize the content and advertising you see.
Visit our Privacy Policy to learn more. By continuing to use the site, you agree to this use of cookies and data.
  • In Belgium
  • List of Countries
  • For 7 days
  • Water Temperature
  • Satellite Maps
  • Weather Map
  • Weather Widgets
  • user-avatar
    Login

    Hourly Weather Arto

    Today, 17 January, Thursday

    Time Temperature Precipitation Wind Pressure Humidity
    00:00 +2°C° 0 mm 1 mps 673 mmHg 62%
    01:00 +1°C° 0 mm 2 mps 673 mmHg 65%
    02:00 +1°C° 0 mm 2 mps 673 mmHg 67%
    03:00 +1°C° 0 mm 2 mps 673 mmHg 70%
    04:00 +1°C° 0 mm 2 mps 673 mmHg 74%
    05:00 +1°C° 0 mm 2 mps 673 mmHg 78%
    06:00 +1°C° 0 mm 2 mps 673 mmHg 82%
    07:00 +1°C° 0.1 mm 3 mps 673 mmHg 79%
    08:00 +2°C° 0.1 mm 3 mps 674 mmHg 77%
    09:00 +3°C° 0.1 mm 3 mps 674 mmHg 74%
    10:00 +4°C° 0 mm 3 mps 675 mmHg 67%
    11:00 +5°C° 0 mm 4 mps 675 mmHg 59%
    12:00 +6°C° 0 mm 4 mps 675 mmHg 51%
    13:00 +6°C° 0 mm 4 mps 675 mmHg 51%
    14:00 +6°C° 0 mm 4 mps 675 mmHg 50%
    15:00 +6°C° 0 mm 4 mps 675 mmHg 50%
    16:00 +4°C° 0 mm 4 mps 675 mmHg 57%
    17:00 +2°C° 0 mm 3 mps 674 mmHg 65%
    18:00 +1°C° 0 mm 3 mps 674 mmHg 72%
    19:00 0°C° 0 mm 3 mps 674 mmHg 73%
    20:00 0°C° 0 mm 3 mps 675 mmHg 74%
    21:00 -1°C° 0 mm 3 mps 675 mmHg 75%
    22:00 -1°C° 0 mm 3 mps 675 mmHg 75%
    23:00 -2°C° 0 mm 3 mps 675 mmHg 75%

    Tomorrow, 18 January, Friday

    Time Temperature Precipitation Wind Pressure Humidity
    00:00 -2°C° 0 mm 3 mps 675 mmHg 74%
    01:00 -2°C° 0 mm 2 mps 675 mmHg 73%
    02:00 -2°C° 0 mm 2 mps 674 mmHg 72%
    03:00 -2°C° 0 mm 2 mps 674 mmHg 71%
    04:00 -2°C° 0 mm 2 mps 674 mmHg 71%
    05:00 -2°C° 0 mm 2 mps 674 mmHg 71%
    06:00 -2°C° 0 mm 2 mps 674 mmHg 71%
    07:00 -1°C° 0 mm 2 mps 674 mmHg 67%
    08:00 +1°C° 0 mm 2 mps 674 mmHg 64%
    09:00 +2°C° 0 mm 2 mps 675 mmHg 60%
    10:00 +3°C° 0 mm 2 mps 675 mmHg 56%
    11:00 +4°C° 0 mm 2 mps 675 mmHg 53%
    12:00 +5°C° 0 mm 2 mps 675 mmHg 49%
    13:00 +4°C° 0 mm 3 mps 674 mmHg 50%
    14:00 +4°C° 0 mm 3 mps 674 mmHg 51%
    15:00 +5°C° 0 mm 3 mps 674 mmHg 53%
    16:00 +3°C° 0 mm 3 mps 673 mmHg 61%
    17:00 +1°C° 0 mm 3 mps 673 mmHg 69%
    18:00 -1°C° 0 mm 2 mps 673 mmHg 78%
    19:00 -1°C° 0 mm 2 mps 673 mmHg 78%
    20:00 -1°C° 0 mm 2 mps 673 mmHg 78%
    21:00 -2°C° 0 mm 2 mps 673 mmHg 78%
    22:00 -2°C° 0 mm 2 mps 673 mmHg 76%
    23:00 0°C° 0 mm 1 mps 673 mmHg 74%

    Day after tomorrow, 19 January, Saturday

    Time Temperature Precipitation Wind Pressure Humidity
    00:00 0°C° 0 mm 1 mps 673 mmHg 72%
    01:00 0°C° 0 mm 1 mps 673 mmHg 73%
    02:00 0°C° 0 mm 1 mps 672 mmHg 73%
    03:00 0°C° 0 mm 1 mps 672 mmHg 73%
    04:00 0°C° 0 mm 1 mps 672 mmHg 73%
    05:00 -1°C° 0 mm 0 mps 672 mmHg 73%
    06:00 0°C° 0 mm 0 mps 671 mmHg 73%
    07:00 0°C° 0 mm 0 mps 671 mmHg 71%
    08:00 +2°C° 0 mm 1 mps 671 mmHg 68%
    09:00 +3°C° 0 mm 1 mps 672 mmHg 66%
    10:00 +4°C° 0.1 mm 1 mps 671 mmHg 66%
    11:00 +3°C° 0.1 mm 2 mps 671 mmHg 65%
    12:00 +4°C° 0.1 mm 2 mps 670 mmHg 64%
    13:00 +3°C° 0.6 mm 2 mps 670 mmHg 69%
    14:00 +2°C° 0.6 mm 3 mps 669 mmHg 73%
    15:00 +1°C° 0.6 mm 3 mps 668 mmHg 78%
    16:00 +2°C° 1.2 mm 2 mps 668 mmHg 81%
    17:00 +1°C° 1.2 mm 2 mps 668 mmHg 85%
    18:00 +1°C° 1.2 mm 2 mps 667 mmHg 88%
    19:00 +1°C° 1.1 mm 2 mps 667 mmHg 89%
    20:00 -1°C° 1.1 mm 2 mps 667 mmHg 90%
    21:00 -1°C° 1.1 mm 2 mps 667 mmHg 91%
    22:00 +2°C° 0.8 mm 1 mps 668 mmHg 91%
    23:00 +2°C° 0.8 mm 1 mps 668 mmHg 91%

    20 January, Sunday

    Time Temperature Precipitation Wind Pressure Humidity
    00:00 +2°C° 0.8 mm 1 mps 668 mmHg 91%
    01:00 +2°C° 0.2 mm 1 mps 668 mmHg 90%
    02:00 +2°C° 0.2 mm 1 mps 668 mmHg 89%
    03:00 +2°C° 0.2 mm 1 mps 668 mmHg 88%
    04:00 +2°C° 0.1 mm 1 mps 669 mmHg 89%
    05:00 +1°C° 0.1 mm 2 mps 669 mmHg 89%
    06:00 0°C° 0.1 mm 3 mps 670 mmHg 89%
    07:00 +1°C° 0 mm 3 mps 670 mmHg 86%
    08:00 +2°C° 0 mm 3 mps 671 mmHg 83%
    09:00 +1°C° 0 mm 4 mps 672 mmHg 80%
    10:00 +3°C° 0 mm 4 mps 673 mmHg 77%
    11:00 +4°C° 0 mm 4 mps 673 mmHg 73%
    12:00 +5°C° 0 mm 5 mps 674 mmHg 70%
    13:00 +5°C° 0 mm 4 mps 674 mmHg 68%
    14:00 +5°C° 0 mm 4 mps 674 mmHg 67%
    15:00 +4°C° 0 mm 4 mps 674 mmHg 66%
    16:00 +1°C° 0 mm 4 mps 674 mmHg 70%
    17:00 -1°C° 0 mm 4 mps 674 mmHg 73%
    18:00 -1°C° 0 mm 3 mps 674 mmHg 77%
    19:00 -2°C° 0 mm 3 mps 675 mmHg 78%
    20:00 -2°C° 0 mm 3 mps 675 mmHg 79%
    21:00 -2°C° 0 mm 3 mps 676 mmHg 79%
    22:00 -2°C° 0 mm 3 mps 676 mmHg 81%
    23:00 -2°C° 0 mm 3 mps 676 mmHg 82%

    21 January, Monday

    Time Temperature Precipitation Wind Pressure Humidity
    00:00 -2°C° 0 mm 3 mps 676 mmHg 83%
    01:00 -2°C° 0 mm 3 mps 676 mmHg 84%
    02:00 -2°C° 0 mm 3 mps 676 mmHg 84%
    03:00 -2°C° 0 mm 3 mps 676 mmHg 85%
    04:00 -1°C° 0 mm 3 mps 677 mmHg 84%
    05:00 -1°C° 0 mm 3 mps 677 mmHg 84%
    06:00 -1°C° 0 mm 3 mps 677 mmHg 84%
    07:00 0°C° 0 mm 3 mps 678 mmHg 81%
    08:00 0°C° 0 mm 3 mps 678 mmHg 78%
    09:00 +1°C° 0 mm 3 mps 679 mmHg 75%
    10:00 +1°C° 0 mm 4 mps 679 mmHg 70%
    11:00 +3°C° 0 mm 4 mps 679 mmHg 65%
    12:00 +4°C° 0 mm 4 mps 679 mmHg 59%
    13:00 +4°C° 0 mm 4 mps 679 mmHg 60%
    14:00 +4°C° 0 mm 4 mps 678 mmHg 61%
    15:00 +4°C° 0 mm 4 mps 677 mmHg 61%
    16:00 +2°C° 0 mm 3 mps 677 mmHg 68%
    17:00 0°C° 0 mm 3 mps 676 mmHg 74%
    18:00 -2°C° 0 mm 3 mps 676 mmHg 81%
    19:00 -4°C° 0 mm 3 mps 676 mmHg 79%
    20:00 -4°C° 0 mm 3 mps 675 mmHg 77%
    21:00 -4°C° 0 mm 2 mps 675 mmHg 76%
    22:00 -4°C° 0 mm 2 mps 674 mmHg 76%
    23:00 -4°C° 0 mm 2 mps 674 mmHg 76%

    22 January, Tuesday

    Time Temperature Precipitation Wind Pressure Humidity
    00:00 -4°C° 0 mm 2 mps 673 mmHg 76%
    01:00 -4°C° 0 mm 2 mps 672 mmHg 76%
    02:00 -2°C° 0 mm 1 mps 671 mmHg 77%
    03:00 -2°C° 0 mm 1 mps 670 mmHg 77%
    04:00 -1°C° 0.2 mm 1 mps 669 mmHg 80%
    05:00 -1°C° 0.2 mm 1 mps 668 mmHg 82%
    06:00 -1°C° 0.2 mm 1 mps 667 mmHg 85%
    07:00 -1°C° 0.9 mm 1 mps 666 mmHg 87%
    08:00 -1°C° 0.9 mm 1 mps 666 mmHg 89%
    09:00 0°C° 0.9 mm 1 mps 666 mmHg 91%
    10:00 -1°C° 0.3 mm 2 mps 666 mmHg 86%
    11:00 -2°C° 0.3 mm 4 mps 666 mmHg 81%
    12:00 -1°C° 0.3 mm 5 mps 666 mmHg 76%
    13:00 -1°C° 0.2 mm 5 mps 665 mmHg 75%
    14:00 -3°C° 0.2 mm 6 mps 665 mmHg 74%
    15:00 -3°C° 0.2 mm 6 mps 664 mmHg 73%
    16:00 -4°C° 0.3 mm 5 mps 664 mmHg 77%
    17:00 -3°C° 0.3 mm 4 mps 664 mmHg 81%
    18:00 -4°C° 0.3 mm 4 mps 664 mmHg 85%
    19:00 -4°C° 0.2 mm 4 mps 664 mmHg 85%
    20:00 -4°C° 0.2 mm 4 mps 664 mmHg 85%
    21:00 -4°C° 0.2 mm 4 mps 664 mmHg 85%
    22:00 -4°C° 0.1 mm 4 mps 663 mmHg 85%
    23:00 -5°C° 0.1 mm 3 mps 663 mmHg 85%
    Show more